Lapse_Rate
7.0 6.7 6.5 7.0 6.9 6.9 6.7 5.0 4.4 4.2 3.7 3.7 3.4 3.7 3.9 4.1 4.4 4.6 5.0 3.4 3.6 4.3 4.4 4.3 4.3 4.0 4.0 3.9 3.8 3.7 3.1 3.0 3.0
6.8 6.6 6.6 7.0 7.0 7.2 7.0 5.1 4.1 3.9 3.8 4.2 3.6 3.9 4.1 4.0 3.9 4.9 4.4 3.6 3.4 3.0 3.5 4.6 4.0 4.1 4.1 3.8 3.8 3.3 2.6 2.8 3.0
6.6 6.8 7.1 6.9 7.2 7.3 7.2 5.6 4.2 3.8 3.9 3.9 3.8 3.9 4.2 4.4 3.9 4.0 4.4 4.0 2.7 2.7 3.0 4.0 4.5 4.0 4.2 3.7 3.7 3.2 2.7 2.8 2.7
6.5 6.8 6.7 6.5 7.3 7.3 6.7 6.6 5.5 4.0 3.7 4.0 3.9 3.7 3.7 4.1 4.3 4.6 4.0 3.9 3.2 3.6 2.9 3.4 4.0 4.2 3.8 3.9 3.5 3.5 3.1 2.8 3.0
6.5 6.7 6.7 6.9 7.1 7.1 7.4 7.3 6.3 4.6 3.6 4.0 3.6 3.0 3.3 3.3 3.6 4.0 4.3 3.7 3.2 3.2 3.3 3.2 3.8 3.5 4.0 3.8 3.9 3.7 3.6 3.1 3.9
6.5 6.6 7.0 7.1 7.0 7.1 6.8 7.2 6.5 5.3 3.9 3.2 3.4 3.3 3.4 3.3 3.5 3.4 3.7 3.7 3.3 2.8 3.1 3.4 3.1 3.7 3.7 3.8 3.9 3.8 3.7 3.7 3.6
3.9 6.5 6.6 6.8 6.8 6.7 6.1 7.0 6.5 4.9 5.2 3.4 3.1 3.1 3.1 3.1 3.0 3.0 3.1 3.0 3.3 3.1 2.3 2.8 3.0 3.0 3.7 3.6 3.6 3.9 4.1 4.0 3.7
4.2 6.0 6.7 6.8 6.7 6.8 6.0 6.9 6.2 5.6 5.2 3.7 2.9 2.4 2.4 2.3 2.5 2.6 2.5 2.2 2.4 2.7 2.9 1.9 2.9 3.6 3.3 3.6 4.3 4.4 4.0 4.3 4.0
5.3 6.0 6.5 6.7 6.9 6.7 5.2 6.0 5.3 5.8 4.9 3.5 2.9 1.9 1.8 2.1 1.9 2.0 1.8 1.8 1.4 1.7 1.9 2.2 2.2 2.4 2.9 2.8 4.0 2.7 1.6 4.0 4.6
3.2 5.0 6.4 6.6 6.8 6.1 4.2 5.4 5.6 5.2 4.1 4.0 2.9 1.7 1.8 1.8 1.8 1.6 1.2 1.2 1.5 1.3 1.0 1.3 1.7 2.4 2.2 2.8 3.2 -0.1 -0.4 0.5 4.4
3.5 3.2 2.7 2.2 3.5 4.7 4.5 6.0 6.4 5.6 5.5 3.9 2.9 2.7 1.7 2.0 2.2 2.0 2.0 2.1 2.5 2.3 2.5 1.9 1.2 1.5 2.2 2.0 2.6 -1.1 -1.7 -0.4 3.7
2.7 1.4 0.8 0.6 0.4 0.9 1.4 5.0 5.2 5.0 4.5 4.0 3.6 3.1 2.4 1.8 1.8 1.6 1.7 1.8 1.9 2.4 2.5 2.6 2.4 2.1 2.2 2.5 3.1 -1.9 -2.0 -0.9 3.2
3.0 2.5 1.7 1.2 0.9 0.2 0.2 -0.3 0.5 3.9 4.1 3.9 3.4 3.4 2.6 2.7 2.2 2.2 1.9 1.7 1.9 2.0 2.4 2.3 2.6 2.8 2.8 1.8 2.9 -1.5 -2.1 -0.6 4.9
4.1 3.1 2.0 1.1 0.1 -0.7 0.5 0.7 -0.5 0.2 1.6 3.6 2.9 2.4 2.4 1.6 2.1 1.8 2.3 2.3 2.4 2.6 2.6 3.1 3.2 3.1 3.4 3.4 2.8 2.9 -2.9 -2.6 4.8
4.1 3.1 2.3 1.9 0.8 0.4 -0.0 -0.4 0.2 -0.5 0.6 1.5 1.7 0.3 -0.8 0.4 1.6 2.5 2.6 2.3 2.3 2.7 3.1 3.1 3.1 3.6 3.9 4.1 4.2 0.0 -2.6 -2.8 -1.6
4.4 3.9 3.8 3.6 3.1 2.2 1.5 0.6 0.1 -0.1 -0.8 -0.8 1.0 0.6 0.3 0.3 -0.0 0.1 0.1 0.8 1.3 2.2 2.9 3.9 4.0 3.9 3.6 3.8 3.2 3.5 -1.7 -2.8 -3.0
4.4 3.7 3.2 3.4 2.9 2.9 2.6 2.2 2.2 1.7 1.3 0.5 -0.0 -0.0 0.7 -0.6 -1.0 -1.1 -0.7 0.7 1.0 2.1 2.0 2.8 3.6 3.8 3.8 3.6 3.3 3.4 1.0 0.2 -0.6
4.0 3.2 2.6 2.2 2.2 2.6 2.8 2.2 2.3 2.5 2.5 2.3 2.2 1.6 1.2 0.7 -0.4 -0.7 -0.3 -3.0 -2.7 1.3 2.0 2.7 3.8 3.9 3.9 3.5 3.0 -0.1 -3.3 -1.7 1.1
3.5 3.0 2.2 2.3 2.4 3.2 3.3 2.7 2.1 1.7 2.2 2.2 2.1 2.6 3.1 3.1 2.6 1.7 1.5 -1.2 -3.3 -6.6 -7.7 -7.2 -5.7 -5.0 -1.2 -3.3 -5.2 -5.8 -5.9 -6.3 -6.8
3.2 2.7 2.5 2.2 2.9 3.3 3.6 3.2 3.2 3.0 3.7 3.0 2.5 2.9 2.4 3.0 3.1 3.1 2.4 -0.3 -0.3 -0.2 -1.8 -6.5 -8.2 -7.5 -6.6 -5.4 -6.4 -6.6 -7.5 -6.0 -6.6
Wind_Speed
29 25 22 23 26 27 24 24 24 23 22 21 19 20 19 16 15 11 10 8 6 7 7 8 9 10 9 10 11 9 8 4 4
27 28 24 26 25 26 24 23 25 25 24 22 20 20 17 15 13 14 12 11 8 6 6 7 10 10 10 9 9 9 6 5 6
29 27 26 22 23 26 24 22 24 24 23 24 21 20 17 15 14 15 13 9 9 8 7 8 10 10 11 10 10 8 9 6 5
29 27 27 25 23 24 26 23 21 22 21 22 19 18 18 17 16 15 10 11 10 11 7 8 9 10 11 12 12 11 9 8 8
30 30 31 26 26 24 23 22 21 22 21 21 21 21 19 18 15 13 13 12 12 11 12 7 9 8 11 13 13 12 12 11 11
28 30 30 27 23 22 22 22 21 20 20 22 20 18 18 16 15 14 15 16 15 12 11 10 7 10 12 13 13 13 13 13 12
18 30 29 25 23 22 21 22 22 21 20 19 19 18 18 17 17 16 16 15 15 14 10 10 10 9 11 12 13 14 15 14 13
16 25 29 27 25 23 22 22 20 18 19 19 20 19 19 18 17 16 16 15 15 14 14 12 12 13 11 12 12 11 14 14 14
17 24 28 29 28 25 22 22 21 20 19 20 20 20 20 18 17 17 17 16 15 15 15 15 13 13 14 14 12 15 19 17 15
10 13 26 26 26 25 23 22 21 20 21 18 19 19 18 18 17 17 18 17 16 15 16 15 16 16 15 16 15 16 19 20 15
17 14 12 8 9 11 10 12 15 14 14 17 18 17 17 16 16 16 15 15 16 15 14 15 15 16 16 15 15 14 17 19 18
7 8 7 8 9 6 7 14 16 16 16 16 15 17 17 16 17 17 16 16 16 15 14 14 15 15 16 17 15 16 17 14 13
11 8 7 8 7 8 10 3 7 14 16 16 18 17 16 14 15 17 17 17 17 15 14 15 13 15 15 16 15 14 18 17 12
14 12 12 7 11 9 6 6 8 6 6 15 17 15 15 14 16 17 17 16 14 14 14 14 14 14 13 13 12 12 18 19 13
16 16 16 14 13 13 11 9 8 8 7 4 6 7 7 10 13 12 11 15 13 14 13 13 13 11 10 9 9 12 15 20 22
12 13 12 12 11 10 11 11 10 10 7 7 3 6 7 8 8 9 9 12 11 9 11 10 10 9 8 7 6 8 16 20 21
11 10 10 8 11 10 7 6 8 6 6 7 7 6 3 5 7 7 7 7 8 8 8 8 7 7 7 7 7 7 2 5 4
10 10 10 9 8 7 7 6 6 5 5 6 6 6 6 4 4 6 5 6 3 3 5 8 9 8 7 6 4 3 3 2 3
7 10 10 9 8 6 6 7 7 7 6 6 5 5 4 3 3 4 6 6 7 15 12 9 9 10 8 3 9 7 4 4 3
8 9 10 7 7 6 4 5 6 7 5 6 6 5 5 3 3 4 5 6 8 10 9 17 15 13 11 11 9 7 8 8 10
Wind_Direction
196 196 199 197 194 192 189 184 184 186 185 187 185 188 192 192 195 199 203 194 192 192 193 197 193 196 194 199 192 192 191 179 195
202 199 203 202 194 194 191 185 186 188 187 191 188 193 191 192 196 199 202 203 195 186 184 194 194 193 195 198 196 189 183 193 196
203 199 203 204 196 192 193 190 188 186 189 189 190 193 194 197 192 199 202 192 195 190 192 196 194 192 195 195 200 195 184 195 189
200 193 200 200 199 197 194 191 186 187 187 189 190 191 197 199 204 203 193 197 202 206 196 194 193 193 192 199 200 200 193 196 196
194 194 201 199 193 194 191 190 186 188 186 187 192 192 195 200 198 198 201 203 204 204 210 191 196 189 195 200 203 200 200 203 204
192 195 197 197 183 188 188 191 190 187 186 192 192 192 194 196 198 195 203 209 209 207 205 206 183 192 198 198 202 201 204 207 208
164 187 186 187 184 187 187 192 191 189 189 190 190 191 194 197 197 199 203 208 212 210 204 204 200 196 199 200 201 203 205 207 211
150 176 181 182 183 185 188 191 193 189 192 187 187 191 194 198 198 199 202 204 209 210 209 207 209 208 205 206 202 204 206 210 211
161 173 181 184 184 182 183 188 190 187 189 190 187 193 197 196 197 201 202 205 202 206 209 212 208 213 211 209 213 206 199 205 214
120 161 180 182 182 182 185 187 186 186 188 186 192 197 197 198 198 201 204 204 204 204 208 208 214 218 218 224 219 203 200 205 217
85 85 96 109 153 159 163 173 184 186 181 190 195 194 197 197 196 204 205 203 206 209 210 209 213 218 221 223 227 198 200 204 218
19 82 87 90 93 118 139 169 171 177 182 191 197 201 202 195 194 199 202 204 205 207 209 215 217 217 218 222 224 199 200 195 218
14 32 53 70 75 91 91 101 164 176 188 190 202 203 205 198 194 201 203 203 206 207 211 215 218 222 221 219 221 199 197 198 221
33 37 36 36 58 66 70 95 113 136 172 202 204 201 200 193 199 201 205 205 207 209 210 216 219 223 223 221 210 210 196 199 213
30 30 27 27 61 59 49 47 71 77 78 300 197 165 176 198 199 201 199 201 203 207 208 213 218 220 222 220 208 201 200 202 210
26 32 27 27 39 55 59 58 58 54 0 355 20 158 204 200 188 185 178 187 192 197 202 210 214 214 218 217 198 211 206 205 211
19 27 32 23 31 35 43 61 67 63 21 9 14 6 286 205 187 183 181 187 183 187 191 202 207 205 212 217 212 213 140 197 204
3 7 14 18 18 7 7 23 46 60 35 25 359 348 323 262 193 182 142 72 42 198 183 197 194 207 210 212 193 175 148 169 173
6 4 2 11 2 1 348 2 10 3 14 30 14 336 327 258 177 170 140 121 82 42 38 46 78 94 121 67 86 116 101 90 81
357 357 352 342 318 316 333 346 358 346 11 31 359 333 324 278 208 182 132 120 123 106 53 60 56 74 86 88 116 75 83 86 73